Weather reports worldwide

Advertisment
Greifswald, Germany (10184): temperature & dewpoint: 11.08.2018 01:00:00 - 17.08.2018 01:00:00 (CEST)Greifswald, Germany (10184): temperature 5cm & temperature -5cm: 11.08.2018 01:00:00 - 17.08.2018 01:00:00 (CEST)Greifswald, Germany (10184): temperature -20cm & temperature -100cm: 11.08.2018 01:00:00 - 17.08.2018 01:00:00 (CEST)Greifswald, Germany (10184): wind speed & gusts: 11.08.2018 01:00:00 - 17.08.2018 01:00:00 (CEST)Greifswald, Germany (10184): wind direction: 11.08.2018 01:00:00 - 17.08.2018 01:00:00 (CEST)Greifswald, Germany (10184): reduced air pressure: 11.08.2018 01:00:00 - 17.08.2018 01:00:00 (CEST)Greifswald, Germany (10184): visibility: 11.08.2018 01:00:00 - 17.08.2018 01:00:00 (CEST)Greifswald, Germany (10184): sunshine duration: 11.08.2018 01:00:00 - 17.08.2018 01:00:00 (CEST)Greifswald, Germany (10184): precipitation: 11.08.2018 01:00:00 - 17.08.2018 01:00:00 (CEST)
Date & Time tt [°C] td [°C] tt 5cm [°C] tt -5cm [°C] tt -20cm [°C] tt -100cm [°C] ff [km/h] ff [kn] fx [km/h] fx [kn] dd ppp [hPa] vv [km] sd [min] rr [mm]
17.08.2018 01:00:00 20,3 12,5 18,4 22,5 25,0 20,5 7 4 15 8 SSE 1014,8 40 0 0,0
17.08.2018 00:00:00 20,7 12,6 18,5 23,4 25,6 20,5 8 5 16 8 SSE 1014,8 40 0 0,0
16.08.2018 23:00:00 20,1 12,8 16,7 24,5 26,2 20,5 5 3 10 6 SE 1014,8 40 0 0,0
16.08.2018 22:00:00 19,9 14,4 17,8 25,9 26,7 20,5 3 1 10 5 S 1014,8 40 0 0,0
16.08.2018 21:00:00 21,7 14,9 19,4 27,8 27,2 20,5 6 3 11 6 SE 1014,8 45 1 0,0
16.08.2018 20:00:00 26,2 12,7 24,8 30,3 27,3 20,5 8 4 22 12 SE 1014,5 45 60 0,0
16.08.2018 19:00:00 27,7 11,9 28,1 32,2 27,2 20,5 12 6 29 16 SSE 1014,5 45 60 0,0
16.08.2018 18:00:00 28,2 12,2 29,8 33,3 26,8 20,5 13 7 34 19 SSE 1014,8 45 60 0,0
16.08.2018 17:00:00 28,7 12,6 30,7 33,7 26,1 20,5 15 8 34 18 SSE 1015,1 48 60 0,0
16.08.2018 16:00:00 28,0 12,4 30,2 33,9 25,3 20,5 18 10 34 19 S 1015,5 45 60 0,0
16.08.2018 15:00:00 27,6 12,8 31,0 32,9 24,3 20,6 10 5 31 17 S 1016,1 45 57 0,0
16.08.2018 14:00:00 26,5 13,5 29,4 31,3 23,3 20,6 11 6 31 17 S 1016,8 45 50 0,0
16.08.2018 13:00:00 25,9 14,0 28,3 29,4 22,3 20,6 12 7 29 16 S 1017,4 45 53 0,0
16.08.2018 12:00:00 25,5 14,4 28,5 27,2 21,5 20,6 14 8 30 16 S 1017,8 45 60 0,0
16.08.2018 11:00:00 24,1 14,1 26,2 24,3 20,9 20,6 13 7 26 14 S 1018,3 45 60 0,0
16.08.2018 10:00:00 23,2 14,4 24,6 22,3 20,6 20,6 11 6 23 13 SSW 1018,3 35 60 0,0
16.08.2018 09:00:00 21,4 14,5 22,3 20,6 20,4 20,6 8 4 18 10 SSW 1018,6 30 60 0,0
16.08.2018 08:00:00 20,0 15,1 20,3 19,4 20,4 20,6 7 4 15 8 S 1018,6 25 34 0,0
16.08.2018 07:00:00 18,6 15,1 18,0 19,0 20,5 20,6 7 4 13 7 SSE 1018,6 25 0 0,0
16.08.2018 06:00:00 18,3 15,5 17,4 19,1 20,6 20,6 4 2 8 5 S 1018,6 24 0 0,0
16.08.2018 05:00:00 18,5 15,4 17,7 19,1 20,7 20,6 4 2 12 7 S 1018,8 22 0 0,0
16.08.2018 04:00:00 18,5 15,2 17,9 19,2 20,8 20,6 7 4 11 6 S 1018,7 25 0 0,0
16.08.2018 03:00:00 18,4 15,4 17,8 19,3 21,0 20,6 0 0 10 5 N 1018,7 30 0 0,0
16.08.2018 02:00:00 18,4 15,2 17,6 19,2 21,2 20,6 3 2 12 6 WSW 1018,7 30 0 0,0
16.08.2018 01:00:00 18,5 14,8 17,6 19,2 21,4 20,7 4 2 9 5 SW 1018,7 35 0 0,0
16.08.2018 00:00:00 17,5 14,9 15,2 19,5 21,7 20,7 3 2 6 4 SW 1018,6 35 0 0,0
15.08.2018 23:00:00 17,9 15,7 17,5 19,8 22,0 20,7 3 2 6 3 S 1018,6 35 0 0,0
15.08.2018 22:00:00 17,6 15,4 15,5 20,4 22,3 20,7 2 1 5 3 SSE 1018,6 30 0 0,0
15.08.2018 21:00:00 19,4 15,4 17,2 21,4 22,6 20,7 3 2 12 6 S 1018,3 40 0 0,0
15.08.2018 20:00:00 21,7 14,1 20,3 22,5 22,7 20,7 8 4 17 9 WSW 1018,0 50 16 0,0
15.08.2018 19:00:00 22,7 14,2 22,6 23,7 22,7 20,7 12 7 20 11 W 1017,7 50 34 0,0
15.08.2018 18:00:00 22,1 13,3 22,7 23,7 22,7 20,7 10 5 23 12 WNW 1017,7 55 3 0,0
15.08.2018 17:00:00 21,9 14,5 22,4 23,8 22,6 20,7 13 7 28 15 W 1017,8 65 12 0,0
15.08.2018 16:00:00 22,2 14,6 23,8 23,5 22,5 20,7 9 5 28 15 WNW 1017,6 50 7 0,0
15.08.2018 15:00:00 22,0 14,6 23,1 24,3 22,2 20,7 10 6 19 10 WSW 1017,4 45 0 0,0
15.08.2018 14:00:00 20,8 15,6 23,5 24,3 22,0 20,7 9 5 36 20 WNW 1017,4 42 4 0,2
15.08.2018 13:00:00 20,4 14,3 20,0 24,9 21,5 20,7 22 12 36 19 W 1017,1 18 28 0,0
15.08.2018 12:00:00 21,5 13,4 23,6 24,0 21,0 20,7 17 9 33 18 WNW 1016,8 48 59 0,0
15.08.2018 11:00:00 20,7 11,3 22,2 22,3 20,7 20,7 19 10 35 19 WNW 1016,7 48 59 0,0
15.08.2018 10:00:00 19,4 13,6 21,5 20,8 20,5 20,8 22 12 35 19 WNW 1016,0 45 55 0,0
15.08.2018 09:00:00 18,2 14,5 18,4 19,8 20,4 20,8 16 9 27 15 WNW 1015,3 42 0 0,0
15.08.2018 08:00:00 17,9 15,7 17,3 19,0 20,4 20,8 16 9 25 14 W 1014,8 38 6 0,0
15.08.2018 07:00:00 17,6 16,1 17,0 18,6 20,6 20,8 14 8 27 14 W 1014,0 23 0 0,0
15.08.2018 06:00:00 17,6 16,5 17,0 18,7 20,7 20,8 10 6 22 12 WSW 1013,3 12 0 2,8
15.08.2018 05:00:00 17,6 16,8 17,1 18,8 20,8 20,8 11 6 22 12 WSW 1013,0 3,0 0 0,8
15.08.2018 04:00:00 17,8 16,6 17,3 18,8 21,0 20,8 13 7 22 12 WSW 1012,8 8 0 0,0
15.08.2018 03:00:00 17,9 16,1 17,2 18,9 21,2 20,8 13 7 22 12 WSW 1012,5 15 0 0,0
15.08.2018 02:00:00 18,1 15,9 17,1 19,1 21,4 20,8 10 5 20 11 WSW 1012,5 25 0 0,0
15.08.2018 01:00:00 18,1 16,2 17,2 19,3 21,7 20,8 13 7 24 13 W 1012,0 20 0 0,0
15.08.2018 00:00:00 18,1 16,2 17,3 19,5 21,9 20,8 11 6 23 12 WSW 1011,5 15 0 0,0
14.08.2018 23:00:00 18,4 15,9 17,4 19,9 22,2 20,8 14 8 22 12 W 1011,0 15 0 0,0
14.08.2018 22:00:00 18,2 15,6 17,0 20,3 22,6 20,8 11 6 22 12 WSW 1010,6 25 0 0,0
14.08.2018 21:00:00 18,9 16,7 17,9 21,2 22,8 20,8 12 7 21 12 WSW 1010,2 15 0 0,0
14.08.2018 20:00:00 19,1 17,0 18,2 22,0 23,0 20,8 10 5 15 8 WSW 1009,5 20 0 0,0
14.08.2018 19:00:00 18,8 17,0 18,3 22,7 23,2 20,8 8 4 28 15 WSW 1009,4 20 0 1,1
14.08.2018 18:00:00 20,6 15,0 19,8 23,9 23,1 20,8 16 9 27 15 WNW 1009,1 35 1 0,0
14.08.2018 17:00:00 22,4 14,2 23,8 24,0 23,1 20,8 11 6 25 13 WSW 1008,6 35 2 0,0
14.08.2018 16:00:00 21,5 14,2 22,3 24,4 22,9 20,8 16 9 35 19 WSW 1008,6 40 0 0,0
14.08.2018 15:00:00 20,8 14,5 21,9 23,7 22,8 20,8 18 10 38 21 WSW 1008,6 23 0 0,0
14.08.2018 14:00:00 20,4 14,4 21,2 23,3 22,7 20,8 22 12 42 23 SW 1008,5 25 0 0,0
14.08.2018 13:00:00 20,1 14,4 19,9 23,5 22,6 20,8 16 9 32 17 SW 1008,1 27 2 0,1
14.08.2018 12:00:00 19,5 15,1 18,0 24,6 22,3 20,8 19 10 32 17 SW 1007,9 13 2 0,1
14.08.2018 11:00:00 20,2 14,2 21,7 23,6 21,9 20,8 16 9 32 17 WSW 1007,7 20 4 0,0
14.08.2018 10:00:00 19,8 14,5 20,7 22,7 21,7 20,9 19 10 37 20 WSW 1007,3 20 42 0,0
14.08.2018 09:00:00 18,3 14,3 19,2 20,5 21,7 20,9 12 7 24 13 SW 1007,2 17 0 0,0
14.08.2018 08:00:00 17,5 14,4 17,7 19,7 21,9 20,9 16 9 27 15 WSW 1007,1 13 5 0,0
14.08.2018 07:00:00 17,1 14,5 16,4 19,3 22,2 20,9 10 5 17 9 SW 1006,7 14 5 0,0
14.08.2018 06:00:00 17,5 14,7 16,1 19,6 22,5 20,9 8 4 14 7 SW 1006,3 18 0 0,0
14.08.2018 05:00:00 18,1 14,7 16,8 20,1 22,9 20,9 8 5 17 9 SW 1005,9 25 0 0,0
14.08.2018 04:00:00 18,9 14,7 17,7 20,6 23,2 20,9 9 5 16 9 SW 1005,9 30 0 0,0
14.08.2018 03:00:00 18,3 14,3 16,3 21,0 23,6 20,9 7 4 13 7 SSW 1005,8 40 0 0,0
14.08.2018 02:00:00 18,0 13,8 15,3 21,9 23,9 20,9 4 2 10 5 SSW 1005,8 40 0 0,0
14.08.2018 01:00:00 20,2 13,9 18,7 22,8 24,3 20,9 4 2 9 5 SW 1006,0 40 0 0,0
14.08.2018 00:00:00 20,1 14,8 18,8 23,3 24,6 20,9 5 3 9 5 SSW 1006,1 40 0 0,0
13.08.2018 23:00:00 20,5 14,7 19,3 23,8 24,9 21,0 4 2 8 4 S 1006,0 35 0 0,0
13.08.2018 22:00:00 20,7 16,2 20,0 24,7 25,3 21,0 3 1 8 4 SSE 1006,1 35 0 0,0
13.08.2018 21:00:00 21,1 16,1 20,4 25,5 25,6 21,0 5 3 9 5 E 1006,3 40 0 0,0
13.08.2018 20:00:00 22,2 14,9 21,2 26,5 25,9 21,0 3 2 15 8 ESE 1006,3 40 0 0,0
13.08.2018 19:00:00 22,7 15,1 22,7 27,6 26,1 21,0 13 7 31 17 E 1006,2 40 0 0,0
13.08.2018 18:00:00 23,2 14,9 23,3 29,3 26,1 21,0 23 12 36 20 E 1006,2 40 0 0,0
13.08.2018 17:00:00 24,7 13,4 25,3 31,5 25,7 21,0 26 14 38 20 ENE 1006,4 45 13 0,0
13.08.2018 16:00:00 27,1 11,6 30,2 33,1 24,8 21,0 22 12 33 18 E 1006,5 30 58 0,0
13.08.2018 15:00:00 26,2 15,0 30,3 31,9 23,8 21,1 23 12 35 19 ENE 1007,1 40 60 0,0
13.08.2018 14:00:00 26,7 8,2 31,1 29,3 23,0 21,1 15 8 23 13 E 1007,8 50 21 0,0
13.08.2018 13:00:00 25,5 9,5 27,4 27,6 22,2 21,1 14 8 - - E 1008,0 50 29 0,0
13.08.2018 12:00:00 23,6 11,6 25,9 25,3 21,7 21,1 4 2 - - E 1008,6 60 3 0,0
13.08.2018 11:00:00 21,4 12,1 22,2 23,5 21,3 21,1 7 4 - - ESE 1009,2 50 3 0,0
13.08.2018 10:00:00 20,9 12,2 22,5 22,0 21,1 21,1 11 6 - - ESE 1009,3 50 1 0,0
13.08.2018 09:00:00 19,8 14,2 20,3 20,7 21,0 21,1 4 2 - - E 1009,5 50 1 0,0
13.08.2018 08:00:00 18,8 15,3 18,9 19,6 21,0 21,1 7 4 - - E 1009,5 40 0 0,0
13.08.2018 07:00:00 17,9 15,3 17,4 19,3 21,2 21,2 7 4 - - E 1009,5 37 0 0,0
13.08.2018 06:00:00 17,8 15,6 16,8 19,4 21,4 21,2 4 2 - - E 1010,0 31 0 0,0
13.08.2018 05:00:00 18,0 15,0 17,5 19,7 21,6 21,2 7 4 - - SE 1010,2 38 0 0,0
13.08.2018 04:00:00 18,2 14,4 17,9 19,8 21,8 21,2 14 8 - - SE 1010,4 42 0 0,0
13.08.2018 03:00:00 17,8 14,0 17,5 20,0 22,0 21,2 4 2 - - ESE 1011,1 32 0 0,0
13.08.2018 02:00:00 17,8 13,8 17,3 20,4 22,3 21,2 4 2 - - ESE 1011,5 33 0 0,0
13.08.2018 01:00:00 17,9 13,4 17,5 20,8 22,5 21,3 7 4 - - ESE 1012,0 33 0 0,0
13.08.2018 00:00:00 18,2 13,0 17,9 21,2 22,8 21,3 7 4 - - ESE 1012,3 31 0 0,0
12.08.2018 23:00:00 18,3 12,4 18,0 21,7 23,1 21,3 4 2 - - WNW 1012,7 35 0 0,0
12.08.2018 22:00:00 18,1 12,8 17,9 22,4 23,4 21,3 4 2 - - WNW 1012,8 30 0 0,0
12.08.2018 21:00:00 18,5 12,4 18,3 23,2 23,7 21,3 4 2 - - WNW 1013,4 30 0 0,0
12.08.2018 20:00:00 19,0 12,1 19,1 24,3 23,9 21,4 4 2 - - WNW 1013,5 42 0 0,0
12.08.2018 19:00:00 20,1 11,4 20,2 25,6 24,0 21,4 7 4 - - WNW 1013,7 58 0 0,0
12.08.2018 18:00:00 21,8 8,8 22,2 27,2 23,8 21,4 11 6 - - W 1014,1 45 0 0,0
12.08.2018 17:00:00 21,9 8,0 22,9 28,4 23,4 21,4 14 8 - - W 1014,6 45 10 0,0
12.08.2018 16:00:00 21,7 8,0 23,3 29,3 22,6 21,4 18 10 - - WSW 1015,2 45 42 0,0
12.08.2018 15:00:00 22,2 7,7 25,1 28,5 21,6 21,4 22 12 - - WSW 1015,7 45 60 0,0
12.08.2018 14:00:00 21,2 6,7 24,4 27,0 20,6 21,4 25 14 - - WSW 1016,3 45 55 0,0
12.08.2018 13:00:00 20,5 8,5 22,8 25,0 19,7 21,5 25 14 - - SW 1016,6 40 58 0,0
12.08.2018 12:00:00 19,7 8,8 22,1 22,0 19,1 21,5 22 12 - - WSW 1017,3 40 60 0,0
12.08.2018 11:00:00 18,4 9,6 20,0 19,8 18,6 21,5 18 10 - - WSW 1017,4 40 50 0,0
12.08.2018 10:00:00 17,2 11,5 18,4 18,5 18,3 21,5 22 12 - - WSW 1017,7 40 54 0,0
12.08.2018 09:00:00 15,8 12,0 16,5 16,8 18,1 21,5 14 8 - - WSW 1017,8 40 41 0,0
12.08.2018 08:00:00 14,6 11,4 15,8 14,9 18,1 21,5 14 8 - - SW 1017,8 35 9 0,0
12.08.2018 07:00:00 13,2 10,9 12,9 14,2 18,3 21,5 14 8 - - SW 1017,8 40 21 0,0
12.08.2018 06:00:00 12,8 10,5 11,5 13,9 18,6 21,5 14 8 - - WSW 1017,5 40 0 0,0
12.08.2018 05:00:00 12,9 10,6 11,5 14,1 18,9 21,5 11 6 - - WSW 1017,6 35 0 0,0
12.08.2018 04:00:00 12,7 10,8 11,1 14,5 19,3 21,6 7 4 - - WSW 1017,7 30 0 0,0
12.08.2018 03:00:00 12,3 10,9 10,3 14,8 19,6 21,6 7 4 - - WSW 1017,8 30 0 0,0
12.08.2018 02:00:00 13,8 10,9 12,0 15,2 20,0 21,6 11 6 - - W 1017,9 40 0 0,0
12.08.2018 01:00:00 13,8 10,9 12,2 15,7 20,4 21,6 11 6 - - WSW 1017,7 45 0 0,0
12.08.2018 00:00:00 13,4 11,3 11,9 16,4 20,8 21,6 11 6 - - W 1017,8 45 0 0,1
11.08.2018 23:00:00 14,1 10,8 12,6 16,9 21,3 21,6 11 6 - - W 1018,2 35 0 0,1
11.08.2018 22:00:00 13,6 10,6 12,2 17,5 21,8 21,6 11 6 - - W 1017,9 45 0 0,6
11.08.2018 21:00:00 16,0 10,9 15,0 18,4 22,3 21,6 14 8 - - W 1017,4 35 0 0,0
11.08.2018 20:00:00 17,3 10,5 16,5 19,7 22,7 21,6 25 14 - - WSW 1016,5 45 21 0,0
11.08.2018 19:00:00 18,4 9,6 18,2 21,1 23,0 21,7 18 10 - - WSW 1016,0 40 43 0,0
11.08.2018 18:00:00 17,9 10,8 18,4 21,9 23,2 21,7 32 18 - - WSW 1016,1 45 24 0,0
11.08.2018 17:00:00 16,8 11,5 16,5 23,3 23,3 21,7 22 12 - - WSW 1016,6 45 26 1,4
11.08.2018 16:00:00 14,2 11,1 13,3 25,5 23,0 21,7 37 20 64 35 W 1017,4 8 15 0,2
11.08.2018 15:00:00 20,3 8,3 23,0 26,7 22,4 21,7 21 11 41 22 SW 1016,3 50 43 0,0
11.08.2018 14:00:00 19,4 9,1 23,0 24,7 21,9 21,7 18 10 40 21 WSW 1017,2 50 31 0,0
11.08.2018 13:00:00 16,7 9,8 18,7 22,2 21,6 21,7 18 10 40 22 WSW 1017,8 55 1 0,1
11.08.2018 12:00:00 18,5 9,1 19,5 22,7 21,2 21,7 25 14 39 21 WSW 1017,9 45 2 0,0
11.08.2018 11:00:00 19,2 9,1 20,8 21,9 20,8 21,7 19 10 36 19 W 1017,7 45 17 0,0
11.08.2018 10:00:00 19,4 9,5 21,2 19,9 20,6 21,7 14 7 29 16 SW 1017,4 45 33 0,0
11.08.2018 09:00:00 18,1 11,3 18,4 18,6 20,5 21,7 11 6 23 12 SSE 1017,1 45 2 0,0
11.08.2018 08:00:00 17,0 10,4 16,9 17,6 20,6 21,7 12 6 21 11 SSE 1017,4 50 10 0,0
11.08.2018 07:00:00 15,9 9,7 15,3 17,0 20,9 21,7 9 5 22 12 SSE 1017,8 50 0 0,0
11.08.2018 06:00:00 16,2 9,0 14,9 17,1 21,1 21,7 13 7 24 13 SSE 1018,4 54 0 0,0
11.08.2018 05:00:00 16,2 8,9 15,5 17,3 21,4 21,7 9 5 15 8 S 1019,1 55 0 0,0
11.08.2018 04:00:00 15,1 9,2 14,1 17,1 21,8 21,7 6 4 17 9 SSE 1019,5 49 0 0,0
11.08.2018 03:00:00 13,5 9,6 11,0 17,5 22,2 21,7 5 3 10 6 S 1020,2 48 0 0,0
11.08.2018 02:00:00 13,9 9,8 12,7 17,9 22,6 21,7 4 2 10 5 SSE 1020,7 46 0 0,0
11.08.2018 01:00:00 13,0 11,3 11,1 18,4 23,1 21,7 4 2 6 4 SE 1021,1 24 0 0,0

tt = temperature
td = dewpoint
tt 5cm = temperature 5cm
tt -5cm = temperature -5cm
tt -20cm = temperature -20cm
tt -100cm = temperature -100cm
ff = wind speed
fx = gusts
dd = wind direction
ppp = reduced air pressure
vv = visibility
sd = sunshine duration
rr = precipitation

Next stations